This demonstration page uses our WeatherBlox Daily Observations layout. Learn more.

36.17497, -115.13722

Hourly Observations for February 18, 2016

Temp ( °F °C ) Dew Point ( °F °C ) Humidity (%) Winds ( mph kmh ) Pressure ( in mb ) Visibility ( mi km ) Precip ( " mm )
12:53 am 00:53 Clear 58 14.4 44 6.7 60 60 SSE 14 22 29.78 1009 10 16.0934 0 0
1:53 am 01:53 Mostly Cloudy 60 15.6 44 6.7 56 56 S 6 9 29.75 1008 10 16.0934 0 0
2:53 am 02:53 Cloudy 59 15 44 6.7 58 58 E 5 7 29.73 1007 10 16.0934 0 0
3:53 am 03:53 Cloudy with Light Rain 58 14.4 45 7.2 62 62 Calm 29.73 1007 10 16.0934 0 0.0254
4:53 am 04:53 Cloudy with Light Rain 60 15.6 47 8.3 62 62 SW 16 26 29.74 1007 10 16.0934 0 0.0254
5:53 am 05:53 Clear 59 15 43 6.1 56 56 SW 15 24 29.74 1007 10 16.0934 0 0.0254
6:53 am 06:53 Sunny 57 13.9 44 6.7 62 62 S 13 20 29.75 1007 10 16.0934 0 0
7:53 am 07:53 Sunny 62 16.7 43 6.1 50 50 SSW 15 24 29.78 1008 10 16.0934 0 0
8:53 am 08:53 Sunny 64 17.8 39 3.9 40 40 WSW 21 33 29.8 1009 10 16.0934 0 0
9:53 am 09:53 Sunny 66 18.9 38 3.3 36 36 WSW 31 50 29.81 1010 10 16.0934 0 0
10:53 am 10:53 Sunny 67 19.4 37 2.8 33 33 SW 21 33 29.85 1011 10 16.0934 0 0
11:53 am 11:53 Cloudy 62 16.7 38 3.3 41 41 SSW 21 33 29.93 1014 10 16.0934 0 0
12:07 pm 12:07 Cloudy 62 16.7 37 2.8 40 40 SSW 25 41 29.83 1010 10 16.0934 0 0
12:53 pm 12:53 Sunny 65 18.3 33 0.6 31 31 SW 29 46 29.81 1010 10 16.0934 0 0
1:53 pm 13:53 Sunny 67 19.4 23 -5 19 19 WNW 14 22 29.89 1012 10 16.0934 0 0
2:53 pm 14:53 Sunny 67 19.4 25 -3.9 20 20 SW 20 31 29.91 1013 10 16.0934 0 0
3:53 pm 15:53 Sunny 67 19.4 24 -4.4 20 20 W 12 19 29.93 1014 10 16.0934 0 0
4:53 pm 16:53 Sunny 65 18.3 24 -4.4 21 21 SSW 14 22 29.94 1014 10 16.0934 0 0
5:53 pm 17:53 Clear 62 16.7 30 -1.1 30 30 SW 14 22 29.98 1015 10 16.0934 0 0
6:53 pm 18:53 Clear 61 16.1 29 -1.7 30 30 WSW 5 7 30 1016 10 16.0934 0 0
7:53 pm 19:53 Clear 58 14.4 27 -2.8 31 31 N 3 6 30.01 1016 10 16.0934 0 0
8:53 pm 20:53 Clear 57 13.9 27 -2.8 32 32 NE 3 6 30.02 1017 10 16.0934 0 0
9:53 pm 21:53 Clear 53 11.7 28 -2.2 38 38 WSW 3 6 30.04 1017 10 16.0934 0 0
10:53 pm 22:53 Clear 53 11.7 29 -1.7 40 40 WNW 5 7 30.04 1017 10 16.0934 0 0
11:53 pm 23:53 Mostly Cloudy 50 10 29 -1.7 44 44 N 5 7 30.04 1017 10 16.0934 0 0

Powered by AerisWeather